Location: Banios
(43.0451°N, 0.2335°E)
Time: 13:52:46
(UTC+00:00)

Cosmos 2228 - Pass Details

Date: 25 January 2021
Orbit: 589 x 617 km, 82.5° (Epoch: 26 February)

Event Time Altitude Azimuth Distance (km) Brightness Sun altitude
Rises 06:22:20 0° 197° (SSW) 2,818 6.4 -10.8°
Reaches altitude 10° 06:24:34 10° 202° (SSW) 1,919 5.5 -10.4°
Maximum altitude 06:28:43 55° 280° (W) 713 3.0 -9.7°
Drops below altitude 10° 06:32:54 10° 360° (N) 1,927 5.4 -9.0°
Sets 06:35:09 0° 4° (N) 2,833 6.3 -8.6°
